When you browse on this site, cookies collect data to enhance your experience and personalize the content and advertising you see.
Visit our Privacy Policy to learn more. By continuing to use the site, you agree to this use of cookies and data.
  • In Latvia
  • List of Countries
  • For 7 days
  • Water Temperature
  • Weather Map
  • Weather Widgets
  • user-avatar
    Login

    Hourly Weather Nizhnedonskoy

    Today, 25 August, Sunday

    Time Temperature Precipitation Wind Pressure Humidity
    00:00 +28°C° 0 mm 5 mps 760 mmHg 48%
    01:00 +27°C° 0 mm 5 mps 760 mmHg 50%
    02:00 +26°C° 0 mm 5 mps 760 mmHg 53%
    03:00 +26°C° 0 mm 4 mps 760 mmHg 55%
    04:00 +25°C° 0 mm 5 mps 760 mmHg 57%
    05:00 +25°C° 0 mm 5 mps 760 mmHg 59%
    06:00 +23°C° 0 mm 5 mps 760 mmHg 61%
    07:00 +26°C° 0 mm 5 mps 760 mmHg 56%
    08:00 +28°C° 0 mm 5 mps 761 mmHg 51%
    09:00 +30°C° 0 mm 5 mps 761 mmHg 46%
    10:00 +32°C° 0 mm 5 mps 761 mmHg 41%
    11:00 +34°C° 0 mm 5 mps 761 mmHg 37%
    12:00 +36°C° 0 mm 5 mps 760 mmHg 32%
    13:00 +36°C° 0 mm 5 mps 760 mmHg 31%
    14:00 +36°C° 0 mm 5 mps 760 mmHg 30%
    15:00 +38°C° 0 mm 6 mps 760 mmHg 29%
    16:00 +36°C° 0 mm 5 mps 760 mmHg 31%
    17:00 +35°C° 0 mm 5 mps 760 mmHg 33%
    18:00 +34°C° 0 mm 5 mps 760 mmHg 35%
    19:00 +33°C° 0 mm 5 mps 761 mmHg 38%
    20:00 +30°C° 0 mm 6 mps 761 mmHg 40%
    21:00 +28°C° 0 mm 6 mps 762 mmHg 43%
    22:00 +27°C° 0 mm 5 mps 762 mmHg 42%
    23:00 +26°C° 0 mm 5 mps 762 mmHg 41%

    Tomorrow, 26 August, Monday

    Time Temperature Precipitation Wind Pressure Humidity
    00:00 +25°C° 0 mm 5 mps 762 mmHg 40%
    01:00 +25°C° 0 mm 5 mps 763 mmHg 41%
    02:00 +23°C° 0 mm 4 mps 763 mmHg 42%
    03:00 +23°C° 0 mm 4 mps 763 mmHg 44%
    04:00 +22°C° 0 mm 4 mps 763 mmHg 47%
    05:00 +22°C° 0 mm 4 mps 763 mmHg 51%
    06:00 +21°C° 0 mm 4 mps 763 mmHg 54%
    07:00 +23°C° 0 mm 4 mps 764 mmHg 51%
    08:00 +25°C° 0 mm 5 mps 764 mmHg 48%
    09:00 +27°C° 0 mm 5 mps 764 mmHg 46%
    10:00 +28°C° 0 mm 5 mps 764 mmHg 41%
    11:00 +29°C° 0 mm 5 mps 764 mmHg 37%
    12:00 +32°C° 0 mm 5 mps 764 mmHg 33%
    13:00 +32°C° 0 mm 5 mps 764 mmHg 32%
    14:00 +33°C° 0 mm 5 mps 764 mmHg 30%
    15:00 +33°C° 0 mm 5 mps 763 mmHg 28%
    16:00 +33°C° 0 mm 5 mps 763 mmHg 30%
    17:00 +32°C° 0 mm 5 mps 763 mmHg 31%
    18:00 +30°C° 0 mm 5 mps 763 mmHg 32%
    19:00 +28°C° 0 mm 5 mps 763 mmHg 35%
    20:00 +26°C° 0 mm 4 mps 763 mmHg 39%
    21:00 +25°C° 0 mm 4 mps 763 mmHg 42%
    22:00 +23°C° 0 mm 4 mps 763 mmHg 41%
    23:00 +22°C° 0 mm 4 mps 763 mmHg 40%

    Day after tomorrow, 27 August, Tuesday

    Time Temperature Precipitation Wind Pressure Humidity
    00:00 +22°C° 0 mm 4 mps 763 mmHg 39%
    01:00 +21°C° 0 mm 4 mps 763 mmHg 39%
    02:00 +21°C° 0 mm 4 mps 763 mmHg 40%
    03:00 +20°C° 0 mm 4 mps 763 mmHg 41%
    04:00 +20°C° 0 mm 4 mps 763 mmHg 42%
    05:00 +19°C° 0 mm 4 mps 762 mmHg 44%
    06:00 +19°C° 0 mm 3 mps 762 mmHg 46%
    07:00 +21°C° 0 mm 4 mps 762 mmHg 41%
    08:00 +23°C° 0 mm 4 mps 762 mmHg 37%
    09:00 +27°C° 0 mm 4 mps 762 mmHg 32%
    10:00 +28°C° 0 mm 3 mps 762 mmHg 31%
    11:00 +30°C° 0 mm 3 mps 761 mmHg 29%
    12:00 +31°C° 0 mm 3 mps 761 mmHg 27%
    13:00 +31°C° 0 mm 3 mps 761 mmHg 25%
    14:00 +33°C° 0 mm 3 mps 760 mmHg 23%
    15:00 +33°C° 0 mm 3 mps 760 mmHg 21%
    16:00 +33°C° 0 mm 4 mps 760 mmHg 21%
    17:00 +32°C° 0 mm 4 mps 760 mmHg 22%
    18:00 +30°C° 0 mm 5 mps 759 mmHg 22%
    19:00 +28°C° 0 mm 5 mps 760 mmHg 25%
    20:00 +26°C° 0 mm 4 mps 760 mmHg 29%
    21:00 +23°C° 0 mm 4 mps 760 mmHg 33%
    22:00 +22°C° 0 mm 4 mps 760 mmHg 36%
    23:00 +21°C° 0 mm 3 mps 760 mmHg 39%

    28 August, Wednesday

    Time Temperature Precipitation Wind Pressure Humidity
    00:00 +20°C° 0 mm 3 mps 760 mmHg 43%
    01:00 +19°C° 0 mm 3 mps 760 mmHg 45%
    02:00 +19°C° 0 mm 3 mps 760 mmHg 48%
    03:00 +18°C° 0 mm 3 mps 759 mmHg 50%
    04:00 +18°C° 0 mm 3 mps 760 mmHg 53%
    05:00 +18°C° 0 mm 3 mps 760 mmHg 57%
    06:00 +18°C° 0 mm 3 mps 760 mmHg 60%
    07:00 +20°C° 0 mm 3 mps 760 mmHg 58%
    08:00 +22°C° 0 mm 4 mps 760 mmHg 55%
    09:00 +25°C° 0 mm 5 mps 760 mmHg 52%
    10:00 +26°C° 0 mm 5 mps 760 mmHg 45%
    11:00 +27°C° 0 mm 5 mps 760 mmHg 38%
    12:00 +28°C° 0 mm 6 mps 760 mmHg 31%
    13:00 +28°C° 0 mm 6 mps 760 mmHg 30%
    14:00 +28°C° 0 mm 6 mps 760 mmHg 30%
    15:00 +28°C° 0 mm 6 mps 759 mmHg 29%
    16:00 +27°C° 0 mm 6 mps 760 mmHg 29%
    17:00 +26°C° 0 mm 6 mps 760 mmHg 29%
    18:00 +25°C° 0 mm 5 mps 760 mmHg 29%
    19:00 +22°C° 0 mm 5 mps 760 mmHg 33%
    20:00 +21°C° 0 mm 4 mps 761 mmHg 36%
    21:00 +19°C° 0 mm 4 mps 761 mmHg 40%
    22:00 +18°C° 0 mm 4 mps 761 mmHg 41%
    23:00 +17°C° 0 mm 4 mps 762 mmHg 42%

    29 August, Thursday

    Time Temperature Precipitation Wind Pressure Humidity
    00:00 +15°C° 0 mm 4 mps 762 mmHg 42%
    01:00 +14°C° 0 mm 4 mps 762 mmHg 46%
    02:00 +13°C° 0 mm 4 mps 762 mmHg 50%
    03:00 +12°C° 0 mm 4 mps 762 mmHg 54%
    04:00 +11°C° 0 mm 4 mps 762 mmHg 55%
    05:00 +10°C° 0 mm 4 mps 763 mmHg 57%
    06:00 +10°C° 0 mm 4 mps 763 mmHg 58%
    07:00 +11°C° 0 mm 4 mps 763 mmHg 53%
    08:00 +13°C° 0 mm 5 mps 763 mmHg 48%
    09:00 +14°C° 0 mm 5 mps 763 mmHg 42%
    10:00 +16°C° 0 mm 5 mps 763 mmHg 39%
    11:00 +19°C° 0 mm 5 mps 763 mmHg 35%
    12:00 +20°C° 0 mm 5 mps 763 mmHg 32%
    13:00 +21°C° 0 mm 5 mps 763 mmHg 30%
    14:00 +22°C° 0 mm 5 mps 762 mmHg 29%
    15:00 +22°C° 0 mm 5 mps 762 mmHg 28%
    16:00 +22°C° 0 mm 5 mps 762 mmHg 30%
    17:00 +21°C° 0 mm 5 mps 762 mmHg 31%
    18:00 +21°C° 0 mm 5 mps 762 mmHg 33%
    19:00 +19°C° 0 mm 5 mps 762 mmHg 36%
    20:00 +18°C° 0 mm 4 mps 762 mmHg 39%
    21:00 +15°C° 0 mm 4 mps 763 mmHg 42%
    22:00 +14°C° 0 mm 4 mps 763 mmHg 45%
    23:00 +14°C° 0 mm 4 mps 763 mmHg 47%

    30 August, Friday

    Time Temperature Precipitation Wind Pressure Humidity
    00:00 +13°C° 0 mm 4 mps 763 mmHg 49%
    01:00 +12°C° 0 mm 4 mps 763 mmHg 52%
    02:00 +12°C° 0 mm 4 mps 763 mmHg 54%
    03:00 +11°C° 0 mm 4 mps 763 mmHg 56%
    04:00 +10°C° 0 mm 4 mps 763 mmHg 58%
    05:00 +10°C° 0 mm 4 mps 764 mmHg 61%
    06:00 +10°C° 0 mm 4 mps 764 mmHg 63%
    07:00 +12°C° 0 mm 5 mps 764 mmHg 56%
    08:00 +14°C° 0 mm 5 mps 764 mmHg 49%
    09:00 +15°C° 0 mm 6 mps 764 mmHg 42%
    10:00 +17°C° 0 mm 6 mps 764 mmHg 39%
    11:00 +19°C° 0 mm 6 mps 764 mmHg 36%
    12:00 +21°C° 0 mm 6 mps 764 mmHg 33%
    13:00 +21°C° 0 mm 6 mps 763 mmHg 32%
    14:00 +22°C° 0 mm 5 mps 763 mmHg 31%
    15:00 +23°C° 0 mm 5 mps 763 mmHg 30%
    16:00 +22°C° 0 mm 5 mps 763 mmHg 32%
    17:00 +22°C° 0 mm 5 mps 762 mmHg 34%
    18:00 +21°C° 0 mm 5 mps 762 mmHg 36%
    19:00 +19°C° 0 mm 4 mps 763 mmHg 42%
    20:00 +17°C° 0 mm 4 mps 763 mmHg 48%
    21:00 +16°C° 0 mm 3 mps 763 mmHg 54%
    22:00 +14°C° 0 mm 3 mps 763 mmHg 56%
    23:00 +14°C° 0 mm 3 mps 763 mmHg 58%
    Show more